Date,TemperatureHighF,TemperatureAvgF,TemperatureLowF,DewpointHighF,DewpointAvgF,DewpointLowF,HumidityHigh,HumidityAvg,HumidityLow,PressureMaxIn,PressureMinIn,WindSpeedMaxMPH,WindSpeedAvgMPH,GustSpeedMaxMPH,PrecipitationSumIn
2012-1-1,-200.0,0.0,200.0,-99.9,-99.9,-99.9,0,0,100,0.00,40.00,0,-999,0,0.00
2012-1-2,-200.0,0.0,200.0,-99.9,-99.9,-99.9,0,0,100,0.00,40.00,0,-999,0,0.00
2012-1-3,-200.0,0.0,200.0,-99.9,-99.9,-99.9,0,0,100,0.00,40.00,0,-999,0,0.00
2012-1-4,-200.0,0.0,200.0,-99.9,-99.9,-99.9,0,0,100,0.00,40.00,0,-999,0,0.00
2012-1-5,-200.0,0.0,200.0,-99.9,-99.9,-99.9,0,0,100,0.00,40.00,0,-999,0,0.00
2012-1-6,-200.0,0.0,200.0,-99.9,-99.9,-99.9,0,0,100,0.00,40.00,0,-999,0,0.00
2012-1-7,-200.0,0.0,200.0,-99.9,-99.9,-99.9,0,0,100,0.00,40.00,0,-999,0,0.00
2012-1-8,-200.0,0.0,200.0,-99.9,-99.9,-99.9,0,0,100,0.00,40.00,0,-999,0,0.00
2012-1-9,-200.0,0.0,200.0,-99.9,-99.9,-99.9,0,0,100,0.00,40.00,0,-999,0,0.00
2012-1-10,-200.0,0.0,200.0,-99.9,-99.9,-99.9,0,0,100,0.00,40.00,0,-999,0,0.00
2012-1-11,-200.0,0.0,200.0,-99.9,-99.9,-99.9,0,0,100,0.00,40.00,0,-999,0,0.00
2012-1-12,-200.0,0.0,200.0,-99.9,-99.9,-99.9,0,0,100,0.00,40.00,0,-999,0,0.00
2012-1-13,-200.0,0.0,200.0,-99.9,-99.9,-99.9,0,0,100,0.00,40.00,0,-999,0,0.00
2012-1-14,-200.0,0.0,200.0,-99.9,-99.9,-99.9,0,0,100,0.00,40.00,0,-999,0,0.00
2012-1-15,-200.0,0.0,200.0,-99.9,-99.9,-99.9,0,0,100,0.00,40.00,0,-999,0,0.00
2012-1-16,-200.0,0.0,200.0,-99.9,-99.9,-99.9,0,0,100,0.00,40.00,0,-999,0,0.00
2012-1-17,-200.0,0.0,200.0,-99.9,-99.9,-99.9,0,0,100,0.00,40.00,0,-999,0,0.00
2012-1-18,-200.0,0.0,200.0,-99.9,-99.9,-99.9,0,0,100,0.00,40.00,0,-999,0,0.00
2012-1-19,-200.0,0.0,200.0,-99.9,-99.9,-99.9,0,0,100,0.00,40.00,0,-999,0,0.00
2012-1-20,-200.0,0.0,200.0,-99.9,-99.9,-99.9,0,0,100,0.00,40.00,0,-999,0,0.00
2012-1-21,-200.0,0.0,200.0,-99.9,-99.9,-99.9,0,0,100,0.00,40.00,0,-999,0,0.00
2012-2-24,42.0,16.3,41.0,42.0,-57.2,-99.9,100,29,64,29.17,29.10,6,-607,19,0.00
2012-2-25,43.0,38.8,32.0,41.0,20.7,-99.9,100,55,33,29.67,29.09,16,8,33,0.00
2012-2-26,39.0,31.5,25.0,17.0,5.9,-2.0,56,35,19,30.37,29.68,12,5,27,0.00
2012-2-27,46.0,36.5,22.0,35.0,23.5,9.0,72,59,44,30.40,29.96,10,3,19,0.00
2012-2-28,45.0,39.9,33.0,32.0,21.7,12.0,68,49,28,30.32,29.95,9,4,20,0.00
2012-2-29,36.0,32.8,30.0,33.0,24.1,16.0,93,72,53,30.32,29.90,10,2,16,0.00
2012-3-1,36.0,33.9,28.0,34.0,31.9,26.0,94,92,90,29.93,29.72,17,10,31,0.00
2012-3-2,35.0,28.0,24.0,29.0,25.0,22.0,92,89,79,30.11,29.92,14,4,27,0.00
2012-3-3,44.0,40.6,34.0,44.0,21.7,-99.9,100,81,66,29.93,29.28,10,3,21,0.00
2012-3-4,41.0,37.2,33.0,30.0,23.2,20.0,74,57,44,29.61,29.47,5,2,11,0.00
2012-3-5,37.0,31.1,25.0,23.0,13.2,8.0,69,48,33,30.23,29.54,10,4,20,0.00
2012-3-6,38.0,27.5,18.0,15.0,5.2,-3.0,57,40,18,30.52,30.23,7,2,14,0.00
2012-3-7,60.0,44.9,33.0,36.0,30.2,15.0,75,57,32,30.51,30.17,10,5,20,0.00
2012-3-8,65.0,55.7,47.0,48.0,44.3,36.0,78,66,48,30.17,29.64,15,8,32,0.00
2012-3-9,57.0,42.3,33.0,49.0,27.8,19.0,81,58,36,30.07,29.62,13,4,27,0.00
2012-3-10,38.0,33.2,29.0,30.0,24.6,19.0,95,72,48,30.46,30.07,12,4,22,0.00
2012-3-11,57.0,44.6,34.0,30.0,23.6,-99.9,68,47,26,30.45,30.17,12,5,24,0.00
2012-3-12,47.0,44.7,43.0,33.0,30.1,29.0,62,56,49,30.17,30.14,5,2,10,0.00
2012-3-16,42.0,41.2,40.0,40.0,39.2,38.0,94,93,92,30.11,30.05,1,0,3,0.00
2012-3-17,51.0,43.5,40.0,43.0,28.9,-99.9,100,80,67,30.32,30.11,5,2,11,0.00
2012-3-18,73.0,54.6,41.0,49.0,43.3,38.0,90,69,42,30.28,30.05,8,3,14,0.00
2012-3-19,69.0,56.8,50.0,50.0,46.4,41.0,88,70,39,30.14,30.04,11,2,16,0.00
2012-3-22,67.0,64.6,62.0,52.0,50.9,50.0,66,61,56,29.93,29.92,1,0,6,0.00
2012-3-23,72.0,63.5,55.0,53.0,41.6,30.0,74,47,21,30.06,29.91,9,3,18,0.00
2012-3-24,56.0,48.1,46.0,38.0,31.2,23.0,74,53,28,30.12,29.98,8,3,14,0.00
2012-3-25,47.0,44.2,42.0,40.0,37.8,34.0,91,78,65,29.99,29.65,5,1,11,0.00
2012-3-26,45.0,39.6,32.0,43.0,26.6,10.0,95,63,35,29.88,29.54,16,4,28,0.00
2012-3-27,45.0,35.8,26.0,19.0,6.5,1.0,40,30,17,30.10,29.88,12,5,28,0.00
2012-3-28,49.0,42.2,36.0,44.0,28.5,4.0,91,61,26,30.09,29.49,8,3,18,0.00
2012-3-29,43.0,40.4,38.0,40.0,35.0,28.0,92,82,61,29.83,29.47,12,5,19,0.00
2012-3-30,47.0,40.3,34.0,29.0,20.9,10.0,69,48,24,29.98,29.83,9,4,19,0.00
2012-3-31,41.0,38.9,32.0,32.0,29.7,27.0,88,70,61,29.99,29.83,9,3,16,0.00
2012-4-1,49.0,39.7,30.0,40.0,32.3,26.0,94,77,42,29.83,29.57,9,2,17,0.00
2012-4-2,50.0,41.9,38.0,39.0,32.9,17.0,94,73,31,29.72,29.51,15,4,21,0.00
2012-4-3,55.0,42.5,33.0,35.0,19.6,12.0,73,42,22,29.76,29.64,9,3,19,0.00
2012-4-4,60.0,50.9,43.0,33.0,22.1,15.0,60,34,18,29.65,29.38,10,3,16,0.00
2012-4-5,51.0,43.6,39.0,32.0,26.2,21.0,68,51,32,29.82,29.53,10,4,19,0.00
2012-4-6,50.0,41.4,32.0,32.0,23.7,20.0,71,50,30,29.91,29.80,9,2,16,0.00
2012-4-7,46.0,41.7,36.0,33.0,23.8,14.0,77,49,31,29.96,29.88,8,3,17,0.00
2012-4-8,48.0,43.6,39.0,33.0,28.1,21.0,75,56,36,29.93,29.56,7,2,17,0.00
2012-4-9,54.0,48.8,43.0,38.0,32.1,29.0,81,53,41,29.55,29.40,11,5,26,0.00
2012-4-10,61.0,51.1,45.0,33.0,27.4,24.0,61,41,25,29.69,29.52,10,3,21,0.00
2012-4-11,53.0,46.6,42.0,39.0,34.2,29.0,90,63,48,29.80,29.68,11,3,18,0.00
2012-4-12,51.0,46.9,43.0,41.0,38.6,36.0,89,74,56,30.01,29.79,15,4,25,0.00
2012-4-13,56.0,47.1,37.0,40.0,35.4,27.0,94,67,36,30.08,29.95,9,2,16,0.00
2012-4-14,69.0,54.8,43.0,38.0,31.1,24.0,77,43,18,30.06,29.90,8,2,18,0.00
2012-4-15,70.0,60.2,55.0,52.0,43.5,-99.9,74,56,37,29.93,29.82,9,2,14,0.00
2012-4-16,75.0,64.2,57.0,60.0,54.6,50.0,93,72,48,29.95,29.83,7,2,19,0.00
2012-4-17,83.0,67.1,52.0,57.0,42.1,27.0,95,50,14,30.03,29.81,5,2,17,0.00
2012-4-18,63.0,51.1,46.0,39.0,35.2,28.0,74,56,28,30.19,30.03,8,3,16,0.00
2012-4-19,58.0,52.2,46.0,46.0,42.9,38.0,84,71,57,30.08,29.91,7,2,18,0.00
2012-4-20,65.0,56.4,50.0,50.0,45.5,42.0,80,68,51,29.94,29.85,9,3,22,0.00
2012-4-21,67.0,57.4,50.0,58.0,45.7,-99.9,100,78,61,29.85,29.64,6,3,17,0.00
2012-4-22,56.0,47.9,43.0,55.0,26.3,-99.9,100,83,49,29.79,29.60,17,7,29,0.00
2012-4-23,56.0,51.9,43.0,56.0,40.9,-99.9,100,91,83,29.67,29.25,17,6,35,0.00
2012-4-24,56.0,50.9,47.0,46.0,39.0,33.0,90,66,41,29.65,29.34,10,4,25,0.00
2012-4-25,58.0,51.7,47.0,44.0,36.8,27.0,85,59,32,29.79,29.64,8,3,16,0.00
2012-4-26,56.0,49.3,41.0,50.0,36.7,30.0,88,63,41,29.88,29.50,6,2,24,0.00
2012-4-27,55.0,50.4,40.0,52.0,31.3,-99.9,100,61,38,29.89,29.41,9,4,28,0.00
2012-4-28,58.0,45.8,36.0,30.0,20.6,13.0,59,39,17,30.04,29.89,6,3,18,0.00
2012-4-29,58.0,48.6,41.0,33.0,17.9,-99.9,60,31,16,30.13,29.92,8,3,19,0.00
2012-4-30,52.0,46.4,39.0,39.0,26.7,16.0,71,47,28,30.27,30.13,8,2,17,0.00
2012-5-1,49.0,45.6,43.0,45.0,32.3,-99.9,100,83,51,30.16,30.02,7,4,19,0.00
2012-5-2,51.0,46.8,45.0,49.0,44.6,43.0,100,93,78,30.19,30.07,8,3,13,0.00
2012-5-3,54.0,48.4,46.0,48.0,37.4,-99.9,100,84,44,30.16,30.06,4,1,11,0.00
2012-5-4,53.0,50.1,49.0,53.0,42.8,-99.9,100,95,100,30.06,29.87,7,1,13,0.00
2012-5-5,58.0,51.0,46.0,54.0,42.3,-99.9,100,89,74,30.03,29.88,7,2,13,0.00
2012-5-6,55.0,49.5,46.0,52.0,41.0,-99.9,100,77,43,30.11,30.01,9,2,17,0.00
2012-5-7,65.0,54.3,44.0,47.0,41.6,33.0,91,65,33,30.11,30.04,6,1,13,0.00
2012-5-17,57.0,52.2,49.0,47.0,46.2,45.0,88,80,66,30.09,30.05,0,0,1,0.00
2012-5-18,64.0,56.2,45.0,50.0,43.1,38.0,96,65,39,30.22,30.09,5,2,16,0.00
2012-5-19,70.0,58.2,47.0,50.0,44.7,37.0,92,63,36,30.14,30.08,5,1,12,0.00
2012-5-20,71.0,61.3,51.0,53.0,41.9,-99.9,85,54,26,30.25,30.10,6,1,16,0.00
2012-5-21,64.0,57.6,51.0,58.0,45.9,-99.9,100,83,69,30.25,30.03,6,1,9,0.00
2012-5-22,61.0,58.6,57.0,61.0,38.0,-99.9,100,86,64,30.03,29.77,9,3,15,0.00
2012-5-23,72.0,62.7,57.0,67.0,47.1,-99.9,100,83,73,30.00,29.78,6,2,10,0.00
2012-5-24,70.0,63.1,58.0,62.0,59.3,56.0,97,88,74,30.20,30.00,5,2,13,0.00
2012-5-25,65.0,60.9,57.0,64.0,49.1,-99.9,100,88,85,30.22,30.05,5,2,13,0.00
2012-5-26,85.0,73.2,63.0,70.0,65.2,60.0,97,78,49,30.07,29.96,5,1,16,0.00
2012-5-27,71.0,64.5,61.0,62.0,54.1,46.0,97,71,42,30.13,29.97,8,2,14,0.00
2012-5-28,70.0,63.0,60.0,60.0,57.4,54.0,94,83,64,29.98,29.91,6,2,12,0.00
2012-5-29,65.0,61.0,59.0,61.0,51.2,-99.9,100,88,82,29.92,29.67,8,2,13,0.00
2012-5-30,75.0,66.2,60.0,69.0,59.0,-99.9,100,89,64,29.69,29.64,3,0,6,0.00
2012-5-31,80.0,68.9,60.0,65.0,61.7,55.0,100,81,44,29.85,29.65,5,1,11,0.00
2012-6-1,66.0,61.0,58.0,61.0,52.2,46.0,100,74,52,30.05,29.85,11,4,20,0.00
2012-6-2,59.0,57.4,55.0,59.0,50.1,-99.9,100,90,78,29.99,29.65,10,5,26,0.00
2012-6-3,59.0,55.2,53.0,59.0,46.9,-99.9,100,95,99,29.66,29.58,17,7,31,0.00
2012-6-4,52.0,50.7,50.0,52.0,50.5,49.0,100,99,92,29.74,29.53,18,11,34,0.00
2012-6-5,55.0,51.7,49.0,52.0,50.6,48.0,100,96,86,29.88,29.71,11,5,20,0.00
2012-6-6,63.0,55.0,49.0,55.0,49.6,-99.9,100,88,68,29.94,29.87,7,2,12,0.00
2012-6-7,64.0,56.7,50.0,61.0,55.4,50.0,100,96,77,29.93,29.87,6,1,12,0.00
2012-6-8,73.0,60.4,53.0,63.0,53.9,-99.9,100,90,67,29.90,29.68,7,2,14,0.00
2012-6-9,77.0,65.9,56.0,61.0,55.6,49.0,100,73,38,29.87,29.71,7,2,14,0.00
2012-6-10,76.0,63.5,54.0,59.0,54.2,-99.9,100,78,39,30.18,29.87,6,1,13,0.00
2012-6-11,69.0,61.7,55.0,60.0,57.2,55.0,100,86,69,30.27,30.16,7,2,20,0.00
2012-6-12,68.0,63.5,59.0,63.0,59.8,53.0,100,88,75,30.16,29.93,7,3,18,0.00
2012-6-13,63.0,60.9,59.0,62.0,57.4,-99.9,100,98,91,30.02,29.88,4,2,12,0.00
2012-6-14,70.0,62.4,55.0,60.0,56.3,50.0,100,83,50,30.21,30.02,13,3,24,0.00
2012-6-15,70.0,61.5,53.0,59.0,53.3,-99.9,100,81,56,30.29,30.19,10,2,19,0.00
2012-6-16,62.0,57.1,52.0,59.0,55.4,52.0,100,94,82,30.33,30.24,12,3,19,0.00
2012-6-17,65.0,56.6,48.0,57.0,47.3,-99.9,100,84,64,30.24,30.09,6,1,11,0.00
2012-6-18,66.0,58.9,52.0,60.0,54.7,51.0,100,87,63,30.12,30.08,5,1,11,0.00
2012-6-19,76.0,65.3,56.0,67.0,61.6,56.0,100,88,72,30.11,29.96,7,2,17,0.00
2012-6-20,96.0,81.0,66.0,79.0,71.8,65.0,100,77,45,29.96,29.78,6,1,11,0.00
2012-6-21,96.0,84.3,76.0,76.0,72.9,70.0,96,71,48,29.79,29.65,3,1,10,0.00
2012-6-22,92.0,79.0,69.0,74.0,71.6,69.0,100,81,49,29.71,29.63,7,1,17,0.00
2012-6-23,79.0,69.1,62.0,72.0,67.6,62.0,100,95,71,29.86,29.70,9,1,17,0.00
2012-6-24,81.0,70.6,60.0,64.0,55.1,-99.9,100,70,41,29.88,29.80,6,1,12,0.00
2012-6-25,71.0,67.3,62.0,68.0,62.3,-99.9,100,90,75,29.80,29.58,7,2,18,0.00
2012-6-26,70.0,62.1,59.0,64.0,55.5,-99.9,100,94,78,29.59,29.47,6,1,12,0.00
2012-6-27,74.0,66.2,58.0,62.0,59.2,55.0,97,79,63,29.65,29.48,6,2,17,0.00
2012-6-28,77.0,70.0,62.0,65.0,61.1,57.0,86,74,61,29.67,29.64,5,2,12,0.00
2012-6-29,81.0,71.0,65.0,75.0,66.7,58.0,100,87,57,29.66,29.47,7,2,17,0.00
2012-6-30,90.0,80.1,64.0,65.0,61.7,58.0,87,55,37,29.65,29.55,5,1,18,0.00
2012-7-1,91.0,79.4,67.0,69.0,65.6,61.0,98,66,38,29.77,29.65,12,1,22,0.00
2012-7-2,81.0,72.4,66.0,67.0,65.1,61.0,100,80,54,29.82,29.76,5,1,11,0.00
2012-7-3,82.0,72.3,65.0,67.0,62.8,57.0,97,74,45,29.85,29.78,7,2,18,0.00
2012-7-4,81.0,72.8,67.0,75.0,69.0,-99.9,100,91,78,29.80,29.62,5,2,13,0.00
2012-7-5,79.0,73.0,66.0,73.0,68.1,65.0,100,85,66,29.79,29.59,10,2,18,0.00
2012-7-6,82.0,73.2,64.0,70.0,67.8,64.0,100,84,64,29.85,29.76,5,1,11,0.00
2012-7-7,84.0,76.7,72.0,75.0,70.6,67.0,91,82,69,29.76,29.65,3,0,8,0.00
2012-7-8,87.0,75.7,66.0,69.0,65.4,58.0,98,72,46,29.82,29.70,5,1,12,0.00
2012-7-9,81.0,70.7,60.0,64.0,59.0,53.0,99,69,40,29.92,29.82,6,1,12,0.00
2012-7-10,79.0,69.2,57.0,66.0,57.8,49.0,100,71,36,30.03,29.92,5,2,12,0.00
2012-7-11,82.0,72.4,63.0,70.0,64.1,57.0,99,77,43,30.14,30.03,4,1,11,0.00
2012-7-12,81.0,73.4,63.0,70.0,64.2,59.0,100,75,50,30.14,30.05,7,2,14,0.00
2012-7-13,88.0,77.2,69.0,73.0,65.0,58.0,79,67,49,30.13,30.06,7,2,14,0.00
2012-7-14,89.0,77.7,70.0,71.0,67.9,63.0,89,73,50,30.09,29.99,3,1,10,0.00
2012-7-15,90.0,79.1,69.0,75.0,70.5,67.0,95,76,51,30.03,29.82,4,0,10,0.00
2012-7-16,76.0,74.7,73.0,74.0,73.4,72.0,100,96,92,29.82,29.73,2,0,7,0.00
2012-8-10,72.0,70.3,69.0,72.0,70.3,69.0,100,100,100,29.82,29.75,5,3,14,0.00
2012-8-11,79.0,72.8,68.0,75.0,71.7,68.0,100,96,81,29.87,29.76,4,1,12,0.00
2012-8-12,80.0,73.8,70.0,75.0,71.4,-99.9,100,95,82,29.89,29.80,4,1,11,0.00
2012-8-13,86.0,75.7,68.0,73.0,69.8,67.0,100,84,57,29.88,29.83,4,1,11,0.00
2012-8-14,82.0,73.2,65.0,70.0,67.7,65.0,100,84,63,29.89,29.85,4,1,8,0.00
2012-8-15,81.0,72.2,67.0,73.0,70.2,67.0,100,94,76,29.88,29.78,5,1,13,0.00
2012-8-16,81.0,71.1,65.0,72.0,65.3,-99.9,100,89,68,29.81,29.74,5,1,12,0.00
2012-8-17,83.0,74.0,63.0,72.0,67.6,63.0,100,82,60,29.79,29.70,4,1,25,0.00
2012-8-18,72.0,67.7,63.0,70.0,66.5,62.0,100,96,81,29.83,29.75,4,0,7,0.00
2012-8-19,73.0,66.8,60.0,65.0,62.4,60.0,100,86,69,29.90,29.82,8,2,14,0.00
2012-8-20,77.0,67.7,58.0,67.0,62.9,58.0,100,86,60,29.87,29.80,3,0,10,0.00
2012-8-21,79.0,70.4,64.0,68.0,65.4,63.0,100,85,64,30.01,29.83,5,1,8,0.00
2012-8-22,80.0,70.0,60.0,68.0,63.9,60.0,100,82,57,30.09,30.01,4,1,10,0.00
2012-8-23,81.0,72.9,63.0,71.0,67.3,63.0,100,84,62,30.08,30.02,4,1,11,0.00
2012-8-24,79.0,71.8,65.0,70.0,67.9,65.0,100,88,64,30.16,30.05,6,1,10,0.00
2012-8-25,79.0,71.9,68.0,71.0,67.1,64.0,100,86,60,30.29,30.17,5,0,12,0.00
2012-8-26,77.0,69.8,61.0,70.0,59.9,-99.9,100,80,50,30.29,30.19,7,1,11,0.00
2012-8-27,79.0,71.7,62.0,73.0,67.4,62.0,100,87,70,30.17,29.88,7,2,19,0.00
2012-8-28,83.0,72.9,67.0,73.0,70.5,62.0,100,93,69,29.88,29.65,8,1,21,0.00
2012-8-29,76.0,65.0,56.0,62.0,56.4,45.0,99,76,35,29.91,29.80,6,1,11,0.00
2012-8-30,82.0,69.8,56.0,61.0,56.9,54.0,97,66,41,29.96,29.88,6,1,13,0.00
2012-8-31,90.0,75.8,66.0,63.0,59.1,56.0,76,58,37,29.88,29.73,5,1,18,0.00
2012-9-5,79.0,72.5,67.0,76.0,70.5,66.0,100,93,82,29.79,29.63,7,2,18,0.00
2012-9-6,76.0,69.1,64.0,69.0,66.7,64.0,100,92,74,29.85,29.78,6,1,11,0.00
2012-9-7,82.0,72.4,65.0,73.0,68.3,-99.9,100,91,66,29.88,29.79,5,1,10,0.00
2012-9-8,77.0,71.4,66.0,73.0,70.2,66.0,100,96,83,29.85,29.59,11,4,21,0.00
2012-9-9,68.0,63.1,57.0,65.0,60.3,56.0,100,91,68,29.78,29.64,6,1,10,0.00
2012-9-10,67.0,60.5,55.0,58.0,50.5,-99.9,100,78,63,29.96,29.78,7,2,17,0.00
2012-9-11,68.0,59.2,49.0,58.0,51.4,45.0,93,77,52,30.19,29.96,6,1,12,0.00
2012-9-12,74.0,62.4,50.0,64.0,55.4,50.0,100,81,46,30.30,30.19,4,1,10,0.00
2012-9-13,78.0,67.7,61.0,67.0,63.8,61.0,100,88,69,30.29,30.20,5,1,12,0.00
2012-9-14,76.0,67.7,61.0,69.0,64.3,61.0,100,90,76,30.20,30.02,6,1,18,0.00
2012-9-15,73.0,64.7,54.0,65.0,58.0,50.0,100,81,50,30.02,29.91,7,2,13,0.00
2012-9-16,72.0,58.0,48.0,55.0,50.6,46.0,100,80,40,30.02,29.92,6,1,12,0.00
2012-9-17,70.0,58.2,46.0,62.0,53.1,46.0,100,85,56,30.04,29.97,4,1,10,0.00
2012-9-18,71.0,65.4,59.0,68.0,63.2,59.0,100,93,81,30.00,29.70,9,4,26,0.00
2012-9-20,-200.0,0.0,200.0,-99.9,-99.9,-99.9,0,0,100,0.00,40.00,0,-999,0,0.00
2012-9-21,-200.0,0.0,200.0,-99.9,-99.9,-99.9,0,0,100,0.00,40.00,0,-999,0,0.00
2012-9-22,-200.0,0.0,200.0,-99.9,-99.9,-99.9,0,0,100,0.00,40.00,0,-999,0,0.00
2012-9-23,-200.0,0.0,200.0,-99.9,-99.9,-99.9,0,0,100,0.00,40.00,0,-999,0,0.00
2012-9-24,-200.0,0.0,200.0,-99.9,-99.9,-99.9,0,0,100,0.00,40.00,0,-999,0,0.00
2012-9-25,-200.0,0.0,200.0,-99.9,-99.9,-99.9,0,0,100,0.00,40.00,0,-999,0,0.00
2012-9-26,-200.0,0.0,200.0,-99.9,-99.9,-99.9,0,0,100,0.00,40.00,0,-999,0,0.00
2012-9-27,-200.0,0.0,200.0,-99.9,-99.9,-99.9,0,0,100,0.00,40.00,0,-999,0,0.00
2012-10-27,54.0,53.4,53.0,54.0,53.4,53.0,100,100,100,29.98,29.97,3,2,7,0.00
2012-10-28,55.0,53.6,51.0,54.0,53.1,51.0,100,99,96,29.97,29.76,16,8,29,0.00
2012-10-29,61.0,56.8,54.0,61.0,52.5,-99.9,100,97,100,29.75,29.22,23,14,40,0.00
2012-10-30,65.0,60.1,57.0,63.0,56.4,-99.9,100,97,91,29.54,29.28,11,5,24,0.00
2012-10-31,58.0,55.6,51.0,58.0,53.0,46.0,100,91,77,29.51,29.41,8,2,14,0.00
2012-11-1,56.0,50.6,45.0,47.0,44.0,41.0,94,78,65,29.51,29.43,8,1,18,0.00
2012-11-2,54.0,48.2,44.0,44.0,42.7,40.0,98,82,64,29.53,29.45,5,1,12,0.00
2012-11-3,53.0,46.1,42.0,42.0,38.8,34.0,89,76,60,29.71,29.53,5,2,13,0.00
2012-11-4,54.0,44.4,38.0,40.0,36.2,32.0,88,73,55,29.87,29.70,4,2,14,0.00
2012-11-5,42.0,39.3,37.0,34.0,30.7,25.0,87,71,52,30.01,29.87,6,3,16,0.00
2012-11-11,54.0,53.4,53.0,51.0,50.6,50.0,92,90,88,30.40,30.39,3,2,11,0.00
2012-11-12,66.0,56.7,52.0,58.0,54.5,50.0,100,93,71,30.41,30.18,9,4,17,0.00
2012-11-13,63.0,50.8,43.0,63.0,49.5,35.0,100,95,72,30.34,30.06,12,4,21,0.00
2012-11-14,44.0,42.0,40.0,35.0,31.6,-99.9,76,68,58,30.47,30.34,17,9,25,0.00
2012-11-15,42.0,39.3,37.0,37.0,34.9,33.0,95,84,74,30.41,30.24,14,6,25,0.00
2012-11-16,43.0,40.2,36.0,38.0,36.1,33.0,96,85,77,30.35,30.21,8,3,14,0.00
2012-11-17,46.0,40.0,32.0,39.0,35.4,32.0,100,84,69,30.60,30.35,9,3,18,0.00
2012-11-18,45.0,37.4,31.0,42.0,33.4,31.0,100,87,63,30.66,30.57,10,2,18,0.00
2012-11-19,46.0,38.3,32.0,42.0,36.4,32.0,100,93,77,30.57,30.21,9,2,16,0.00
2012-11-20,46.0,39.3,33.0,43.0,36.5,-99.9,100,93,80,30.21,30.08,6,1,12,0.00
2012-11-21,49.0,45.2,39.0,47.0,43.3,37.0,98,93,86,30.19,30.09,11,5,21,0.00
2012-11-22,52.0,44.8,39.0,48.0,43.7,39.0,100,96,78,30.22,30.07,4,1,7,0.00
2012-11-23,49.0,44.6,39.0,48.0,39.2,-99.9,100,95,90,30.07,29.59,7,2,16,0.00
2012-11-24,48.0,42.8,33.0,48.0,32.3,20.0,100,69,44,29.59,29.44,11,4,25,0.00
2012-11-25,39.0,34.3,30.0,26.0,20.0,11.0,73,57,34,29.77,29.55,11,4,24,0.00
2012-11-26,45.0,36.6,29.0,30.0,26.5,24.0,86,67,47,30.17,29.77,10,3,21,0.00
2012-11-27,38.0,33.6,29.0,37.0,31.8,25.0,100,94,77,30.26,30.16,6,0,16,0.00
2012-11-28,39.0,34.7,28.0,37.0,30.9,25.0,100,86,75,30.16,30.05,15,6,24,0.00
2012-11-29,42.0,36.5,30.0,28.0,26.0,22.0,86,66,50,30.17,30.06,7,4,22,0.00
2012-11-30,40.0,31.8,28.0,32.0,20.2,14.0,76,62,50,30.50,30.11,9,3,16,0.00
2012-12-1,37.0,32.0,28.0,37.0,27.1,-99.9,100,88,65,30.57,30.44,5,1,12,0.00
2012-12-2,34.0,33.2,32.0,34.0,8.6,-99.9,100,81,100,30.44,30.40,2,1,6,0.00
2012-12-7,44.0,43.5,43.0,39.0,38.5,38.0,82,82,81,30.05,30.03,3,3,8,0.00
2012-12-8,45.0,43.9,43.0,44.0,43.9,43.0,100,100,100,29.87,29.85,5,3,9,0.00
2012-12-9,46.0,43.3,39.0,46.0,38.7,-99.9,100,87,72,30.24,29.87,8,2,16,0.00
2012-12-10,54.0,47.7,43.0,54.0,45.5,-99.9,100,98,94,30.12,29.42,11,2,21,0.00
2012-12-11,47.0,42.7,34.0,47.0,37.6,-99.9,100,85,68,30.05,29.43,7,2,13,0.00
2012-12-12,37.0,33.1,30.0,31.0,26.2,25.0,89,76,63,30.36,30.05,6,1,12,0.00
2012-12-13,43.0,33.4,28.0,36.0,29.3,26.0,98,86,65,30.40,30.22,3,0,6,0.00
2012-12-14,33.0,32.1,30.0,31.0,28.1,26.0,99,85,78,30.23,30.17,2,0,5,0.00
2012-12-17,46.0,44.0,40.0,46.0,38.0,-99.9,100,96,100,29.96,29.75,9,5,17,0.00
2012-12-18,51.0,47.0,41.0,51.0,47.0,41.0,100,100,100,29.76,29.31,12,5,26,0.00
2012-12-19,43.0,40.7,38.0,42.0,38.9,37.0,100,94,85,29.94,29.34,13,6,26,0.00
2012-12-20,40.0,38.7,37.0,38.0,35.4,33.0,98,88,75,30.14,29.94,8,4,17,0.00
2012-12-21,53.0,45.8,39.0,53.0,44.2,38.0,100,94,81,29.97,29.04,16,7,40,0.00
2012-12-22,40.0,35.6,29.0,38.0,26.9,17.0,91,71,56,29.54,29.14,11,5,29,0.00
2012-12-23,39.0,32.0,26.0,26.0,19.5,16.0,68,60,47,29.75,29.54,9,4,24,0.00
2012-12-25,33.0,31.6,28.0,32.0,28.5,21.0,99,88,78,30.15,29.95,7,2,17,0.00
2012-12-26,38.0,31.7,23.0,36.0,26.6,19.0,97,82,72,30.25,29.91,12,4,22,0.01
2012-12-27,49.0,39.6,30.0,49.0,39.6,30.0,100,100,97,29.91,29.15,26,14,45,0.01
2012-12-28,36.0,31.6,28.0,32.0,25.1,-99.9,100,79,69,29.93,29.50,10,4,21,0.00
2012-12-29,39.0,32.2,28.0,38.0,30.0,25.0,100,92,84,29.93,29.32,18,4,28,0.00
2012-12-30,30.0,26.6,22.0,30.0,21.4,12.0,100,81,61,29.86,29.32,13,5,26,0.00
2012-12-31,34.0,27.8,21.0,27.0,20.3,12.0,83,73,64,29.95,29.68,7,3,18,0.00
2013-1-1,37.0,32.0,20.0,28.0,20.2,9.0,76,62,47,29.85,29.62,7,4,19,0.00